Simultaneous Nadir Overpasses (SNOs) Predictions

Prediction of SNOs between FY3D and TERRA Satellite Orbit:

Table of predicted SNOs for the next 14.0 days since TLE Epoch: 12/3/2022
Index Date (FY3D) Time (FY3D) Lat,Lon (FY3D) SZA (FY3D ) Date (TERRA) Time (TERRA) Lat,Lon (TERRA) SZA (TERRA ) Distance(km) Time Diff (sec)
1 12/05/2022 09:42:46 72.51, 34.04 94.81 12/05/2022 09:43:52 72.51, 34.00 94.81 1.35 66
2 12/05/2022 10:33:29 -72.44,-158.51 85.26 12/05/2022 10:33:18 -72.42,-158.51 85.28 2.22 11
3 12/05/2022 11:24:00 71.60, 10.42 93.93 12/05/2022 11:22:54 71.63, 7.78 93.93 92.67 66
4 12/07/2022 22:37:47 72.46,-159.59 95.06 12/07/2022 22:38:03 72.45,-159.66 95.05 2.60 16
5 12/07/2022 23:28:30 -72.39, 7.87 85.01 12/07/2022 23:27:29 -72.36, 7.83 85.04 3.17 61
6 12/10/2022 10:42:03 -72.53,-160.77 84.64 12/10/2022 10:42:50 -72.52,-160.75 84.64 1.13 47
7 12/10/2022 11:32:48 72.42, 6.77 95.26 12/10/2022 11:32:13 72.43, 6.75 95.27 2.33 35
8 12/12/2022 22:46:21 72.62,-161.99 95.65 12/12/2022 22:47:33 72.58,-161.85 95.62 5.95 72
9 12/12/2022 23:37:03 -72.49, 5.59 84.48 12/12/2022 23:36:59 -72.49, 5.63 84.48 1.26 4
10 12/13/2022 00:27:39 71.92, 174.02 94.96 12/13/2022 00:26:30 71.97, 172.37 95.00 57.33 69
11 12/15/2022 11:41:21 72.53, 4.46 95.72 12/15/2022 11:41:43 72.54, 4.51 95.72 1.68 22
12 12/15/2022 12:32:04 -72.45, 171.94 84.37 12/15/2022 12:31:09 -72.44, 171.99 84.38 1.42 55



Historial Predications of SNOs between FY3D and TERRA
